DW6801 Weather Reports


time (UTC)temp
C
wind
direction
speed
KPH
gust
KPH
rain 1hr
cm
rain 24hr
cm
rain mn
cm
humidity
%
barometer
mb
20260831041532 13 212 0.0 3.2 0.00 1.50 0.00 94 1008.8
20260831041019 12 212 1.6 3.2 0.00 1.50 0.00 93 1008.8
20260831040504 12 212 1.6 3.2 0.00 1.50 0.00 93 1008.8
20260831040005 13 178 0.0 4.8 0.00 1.50 0.00 93 1008.7
20260831035508 13 178 1.6 4.8 0.00 1.50 0.00 93 1008.7
20260831035006 13 179 1.6 4.8 0.00 1.50 0.00 93 1008.7
20260831034517 13 191 1.6 6.4 0.00 1.50 0.00 93 1008.7
20260831034008 13 228 1.6 4.8 0.00 1.50 0.00 93 1008.7
20260831033510 13 216 1.6 4.8 0.00 1.50 0.00 93 1008.7
20260831033016 13 217 1.6 8.0 0.00 1.50 0.00 93 1008.8
20260831032514 13 246 3.2 6.4 0.00 1.50 0.00 93 1008.8
20260831032011 13 234 3.2 6.4 0.00 1.50 0.00 94 1008.9
20260831031528 13 225 3.2 11.3 0.00 1.50 0.00 94 1008.9
20260831031014 13 184 4.8 14.5 0.00 1.50 0.00 94 1009.0
20260831030514 14 240 3.2 14.5 0.00 1.50 0.00 94 1009.1
20260831030006 14 241 4.8 9.7 0.00 1.50 0.00 94 1009.0
20260831025504 14 235 3.2 8.0 0.00 1.50 0.00 94 1009.0
20260831025008 14 227 3.2 6.4 0.00 1.50 0.00 94 1009.0
20260831024511 14 249 3.2 8.0 0.00 1.50 0.00 94 1008.9
20260831024011 14 261 1.6 9.7 0.00 1.50 0.00 94 1008.9
20260831023512 14 217 3.2 9.7 0.00 1.50 0.00 94 1008.9
20260831023018 14 248 4.8 8.0 0.00 1.50 0.00 94 1009.1
20260831022514 14 188 4.8 8.0 0.00 1.50 0.00 94 1009.1
20260831022013 14 231 3.2 9.7 0.00 1.50 0.00 94 1009.1
20260831021536 13 242 3.2 9.7 0.00 1.50 0.00 94 1009.1
20260831021004 13 229 3.2 6.4 0.00 1.50 0.00 94 1009.1
20260831020504 13 205 3.2 6.4 0.00 1.50 0.00 94 1009.1
20260831020009 13 227 3.2 6.4 0.00 1.50 0.00 94 1009.1
20260831015507 13 237 1.6 6.4 0.00 1.50 0.00 94 1009.1
20260831015007 13 182 3.2 6.4 0.00 1.50 0.00 94 1009.1
20260831014515 13 244 4.8 6.4 0.00 1.50 0.00 94 1009.2
20260831014010 13 226 3.2 8.0 0.00 1.55 0.00 1009.2
20260831013515 13 236 3.2 8.0 0.00 1.55 0.00 1009.2
20260831013028 13 188 1.6 4.8 0.00 1.55 0.00 94 1009.2
20260831012514 13 194 1.6 4.8 0.00 1.55 0.00 94 1009.2
20260831012016 13 219 1.6 4.8 0.00 1.55 0.00 94 1009.2
20260831011531 13 221 1.6 6.4 0.00 1.55 0.00 1009.2
20260831011002 13 203 1.6 6.4 0.00 1.55 0.00 94 1009.2
20260831010506 13 237 1.6 4.8 0.00 1.55 0.00 94 1009.3
20260831010015 13 217 1.6 4.8 0.00 1.55 0.00 94 1009.2
20260831005510 13 218 1.6 3.2 0.00 1.55 0.00 94 1009.2
20260831005010 12 194 1.6 3.2 0.00 1.55 0.00 94 1009.2
20260831004516 12 198 1.6 3.2 0.00 1.55 0.00 94 1009.2
20260831004015 12 218 1.6 4.8 0.00 1.55 0.00 94 1009.2
20260831003513 12 215 1.6 4.8 0.00 1.55 0.00 94 1009.2
20260831003026 12 223 1.6 4.8 0.00 1.55 0.00 93 1009.2
20260831002514 12 236 3.2 6.4 0.00 1.52 0.00 93 1009.3
20260831002015 12 224 1.6 6.4 0.00 1.52 0.00 93 1009.2
20260831001529 13 230 1.6 8.0 0.00 1.52 0.00 93 1009.2
20260831001006 13 179 3.2 8.0 0.00 1.52 0.00 94 1009.2
20260831000509 13 196 1.6 6.4 0.00 1.52 0.00 94 1009.2
20260831000028 12 178 1.6 6.4 0.00 1.52 0.00 94 1009.3
20260830235510 12 194 1.6 4.8 0.00 1.52 0.00 93 1009.2
20260830235009 12 198 1.6 4.8 0.00 1.52 0.00 93 1009.2
20260830234523 12 252 3.2 3.2 0.00 1.52 0.00 93 1009.2
20260830234011 12 207 1.6 3.2 0.00 1.52 0.00 93 1009.1
20260830233514 13 207 1.6 3.2 0.00 1.52 0.00 93 1009.1
20260830233035 13 188 1.6 4.8 0.00 1.52 0.00 93 1009.1
20260830232516 13 187 3.2 4.8 0.00 1.52 0.00 93 1009.2
20260830232016 13 183 1.6 3.2 0.00 1.52 0.00 93 1009.2
20260830231510 13 227 1.6 3.2 0.00 1.52 0.00 93 1009.2
20260830231015 13 227 1.6 3.2 0.00 1.52 0.00 93 1009.2
20260830230508 13 226 1.6 3.2 0.00 1.52 0.00 93 1009.3
20260830230016 13 226 1.6 3.2 0.00 1.52 0.00 1009.3
20260830225510 13 226 1.6 3.2 0.00 1.52 0.00 92 1009.2
20260830225016 13 227 1.6 3.2 0.00 1.52 0.00 92 1009.2
20260830224524 13 227 1.6 3.2 0.00 1.52 0.00 92 1009.1
20260830224015 14 227 1.6 3.2 0.00 1.52 0.00 92 1009.1
20260830223517 14 227 1.6 3.2 0.00 1.52 0.00 92 1009.2
20260830223029 15 233 1.6 4.8 0.00 1.52 0.00 91 1009.2
20260830222514 15 248 1.6 4.8 0.00 1.52 0.00 92 1009.0
20260830222022 15 267 0.0 3.2 0.00 1.52 0.00 92 1009.0
20260830221511 15 272 1.6 9.7 0.00 1.52 0.00 92 1009.1
20260830221007 15 261 1.6 9.7 0.00 1.52 0.00 92 1009.1
20260830220509 15 265 1.6 11.3 0.00 1.52 0.00 92 1009.0
20260830220037 15 269 4.8 12.9 0.00 1.52 0.00 92 1009.0
20260830215513 15 287 6.4 12.9 0.00 1.52 1.52 92 1008.9
20260830215018 15 253 6.4 16.1 0.00 1.52 1.52 92 1009.0
20260830214538 15 236 9.7 16.1 0.00 1.52 1.52 92 1009.0
20260830214014 15 238 8.0 14.5 0.00 1.52 1.52 92 1009.0
20260830213516 15 263 6.4 14.5 0.00 1.52 1.52 92 1009.0
20260830213028 15 263 4.8 9.7 0.00 1.52 1.52 93 1009.0
20260830212516 15 234 3.2 6.4 0.00 1.52 1.52 93 1009.0
20260830212009 15 270 3.2 12.9 0.00 1.52 1.52 93 1009.0
20260830211516 15 236 6.4 12.9 0.00 1.52 1.52 93 1008.9
20260830211008 15 256 6.4 14.5 0.00 1.52 1.52 93 1008.9
20260830210512 15 244 8.0 14.5 0.00 1.52 1.52 93 1008.8
20260830210028 15 259 6.4 14.5 0.00 1.52 1.52 93 1008.7
20260830205518 15 235 8.0 14.5 0.00 1.52 1.52 92 1008.7
20260830205012 15 257 6.4 14.5 0.00 1.52 1.52 92 1008.6
20260830204531 15 251 6.4 17.7 0.00 1.52 1.52 92 1008.7
20260830204016 15 248 6.4 17.7 0.00 1.52 1.52 92 1008.7
20260830203522 15 254 6.4 16.1 0.00 1.52 1.52 92 1008.6
20260830203032 15 253 8.0 16.1 0.00 1.52 1.52 92 1008.6
20260830202519 15 252 8.0 14.5 0.00 1.52 1.52 92 1008.6
20260830202008 15 253 8.0 16.1 0.00 1.52 1.52 92 1008.6
20260830201516 15 262 9.7 16.1 0.00 1.52 1.52 92 1008.5
20260830201011 15 249 6.4 16.1 0.00 1.52 1.52 92 1008.4
20260830200511 15 244 9.7 16.1 0.00 1.52 1.52 93 1008.3
20260830200028 15 249 6.4 12.9 0.00 1.52 1.52 93 1008.3
20260830195513 15 253 6.4 12.9 0.00 1.52 1.52 93 1008.2
20260830195016 15 236 6.4 12.9 0.00 1.52 1.52 93 1008.1
20260830194527 15 249 6.4 12.9 0.00 1.52 1.52 93 1008.1
20260830194014 15 273 6.4 16.1 0.00 1.52 1.52 93 1008.0
20260830193513 15 241 6.4 16.1 0.00 1.52 1.52 93 1008.0
20260830193034 15 263 6.4 14.5 0.00 1.52 1.52 93 1007.9
20260830192508 15 257 8.0 17.7 0.00 1.52 1.52 92 1007.9
20260830192008 15 249 6.4 17.7 0.00 1.52 1.52 93 1007.8
20260830191521 15 247 8.0 16.1 0.00 1.52 1.52 93 1007.7
20260830191012 15 256 9.7 16.1 0.00 1.52 1.52 93 1007.6
20260830190503 15 249 9.7 14.5 0.00 1.52 1.52 92 1007.5
20260830190004 15 242 9.7 14.5 0.00 1.52 1.52 92 1007.5
20260830185506 16 254 8.0 19.3 0.00 1.52 1.52 92 1007.5
20260830185008 16 259 11.3 19.3 0.00 1.52 1.52 93 1007.4
20260830184507 16 250 9.7 17.7 0.00 1.52 1.52 93 1007.3
20260830184007 16 267 6.4 17.7 0.03 1.52 1.52 93 1007.3
20260830183506 16 263 12.9 17.7 0.03 1.52 1.52 93 1007.2
20260830183013 16 257 6.4 12.9 0.03 1.52 1.52 93 1007.2
20260830182509 16 263 4.8 11.3 0.03 1.52 1.52 93 1007.1
20260830182011 16 259 6.4 11.3 0.05 1.52 1.52 93 1007.0
20260830181520 16 287 6.4 17.7 0.05 1.52 1.52 93 1007.0
20260830181005 16 283 4.8 19.3 0.05 1.52 1.52 92 1006.8
20260830180507 16 263 8.0 19.3 0.05 1.52 1.52 92 1006.8
20260830180005 16 284 11.3 17.7 0.08 1.52 1.52 92 1006.8
20260830175505 16 241 9.7 22.5 0.08 1.52 1.52 92 1006.7
20260830175003 16 280 9.7 25.7 0.05 1.50 1.50 92 1006.6
20260830174511 16 264 11.3 25.7 0.05 1.50 1.50 92 1006.5
20260830174008 16 296 12.9 19.3 0.03 1.50 1.50 92 1006.4
20260830173510 16 275 8.0 27.4 0.03 1.50 1.50 92 1006.1
20260830173014 16 284 8.0 27.4 0.03 1.50 1.50 92 1006.0
20260830172514 16 282 9.7 17.7 0.03 1.50 1.50 92 1005.9
20260830172016 16 269 11.3 20.9 0.00 1.47 1.47 92 1005.8
20260830171526 17 292 11.3 24.1 0.00 1.47 1.47 91 1005.6
20260830171004 17 261 9.7 24.1 0.00 1.47 1.47 92 1005.6
20260830170505 17 274 11.3 24.1 0.00 1.47 1.47 91 1005.4
20260830170006 17 248 12.9 24.1 0.00 1.45 1.45 92 1005.3
20260830165503 17 284 11.3 19.3 0.00 1.45 1.45 92 1005.1
20260830165003 17 248 11.3 19.3 0.00 1.45 1.45 92 1004.9
20260830164517 17 260 9.7 19.3 0.00 1.45 1.45 92 1004.8
20260830164010 17 329 12.9 20.9 0.00 1.45 1.45 92 1004.7
20260830163511 17 271 14.5 20.9 0.00 1.45 1.45 91 1004.6
20260830163018 17 269 14.5 20.9 0.00 1.45 1.45 91 1004.6
20260830162512 18 280 9.7 22.5 0.00 1.45 1.45 91 1004.4
20260830162011 18 279 16.1 25.7 0.00 1.45 1.45 91 1004.3
20260830161504 18 274 11.3 25.7 0.18 1.45 1.45 91 1004.2
20260830161004 18 248 8.0 19.3 0.18 1.45 1.45 91 1004.1
20260830160507 18 238 11.3 19.3 0.18 1.45 1.45 91 1004.0
20260830160006 18 246 8.0 19.3 0.18 1.45 1.45 91 1003.9
20260830155508 19 242 4.8 19.3 0.33 1.45 1.45 92 1003.9
20260830155007 18 248 8.0 19.3 0.56 1.45 1.45 92 1003.8
20260830154512 18 282 12.9 22.5 0.79 1.45 1.45 92 1003.7
20260830154011 18 274 12.9 22.5 0.86 1.45 1.45 91 1003.7
20260830153515 18 278 12.9 19.3 0.91 1.45 1.45 92 1003.6
20260830153021 19 279 12.9 20.9 0.91 1.45 1.45 92 1003.5
20260830152513 19 248 12.9 27.4 0.91 1.45 1.45 93 1003.4
20260830152015 18 263 9.7 27.4 0.91 1.45 1.45 93 1003.4
20260830151503 18 212 9.7 17.7 0.74 1.27 1.27 92 1003.3
20260830151004 18 254 8.0 14.5 0.74 1.27 1.27 93 1003.2
20260830150508 18 271 9.7 24.1 0.74 1.27 1.27 93 1003.2
20260830150009 18 261 14.5 24.1 0.74 1.27 1.27 92 1003.1
20260830145508 18 296 11.3 17.7 0.61 1.12 1.12 92 1003.3
20260830145010 18 251 8.0 12.9 0.38 0.89 0.89 92 1003.2
20260830144516 18 198 6.4 16.1 0.15 0.64 0.64 91 1003.2
20260830144012 18 232 6.4 16.1 0.08 0.56 0.56 91 1003.2
20260830143512 18 225 8.0 22.5 0.03 0.53 0.53 91 1003.2
20260830143028 18 218 9.7 22.5 0.03 0.53 0.53 90 1003.1
20260830142515 18 186 8.0 24.1 0.03 0.53 0.53 91 1003.1
20260830142004 18 233 11.3 24.1 0.03 0.53 0.53 90 1003.1
20260830141506 18 165 12.9 19.3 0.03 0.53 0.53 91 1003.0
20260830141005 18 164 4.8 17.7 0.03 0.53 0.53 91 1003.0
20260830140506 18 149 6.4 17.7 0.03 0.53 0.53 91 1003.0
20260830140012 18 192 9.7 20.9 0.00 0.51 0.51 90 1003.0
20260830135508 18 204 8.0 20.9 0.00 0.48 0.48 90 1003.0
20260830135010 18 231 6.4 20.9 0.00 0.48 0.48 90 1003.0
20260830134526 18 248 6.4 17.7 0.00 0.48 0.48 90 1003.1
20260830134017 18 229 4.8 16.1 0.00 0.48 0.48 91 1003.0
20260830133513 18 167 8.0 16.1 0.00 0.48 0.48 90 1003.0
20260830133029 18 196 6.4 25.7 0.00 0.48 0.48 91 1003.0
20260830132515 18 178 9.7 25.7 0.00 0.48 0.48 92 1002.9
20260830132006 18 225 8.0 25.7 0.00 0.48 0.48 91 1002.9
20260830131510 18 213 9.7 25.7 0.00 0.48 0.48 92 1003.0
20260830131009 18 228 6.4 16.1 0.00 0.48 0.48 91 1002.9
20260830130509 18 242 6.4 16.1 0.00 0.48 0.48 91 1002.8
20260830130016 18 201 8.0 25.7 0.00 0.48 0.48 91 1002.8
20260830125511 18 189 9.7 25.7 0.00 0.48 0.48 91 1002.7
20260830125012 18 169 8.0 17.7 0.00 0.48 0.48 91 1002.7
20260830124520 18 169 8.0 24.1 0.00 0.48 0.48 91 1002.6
20260830124011 18 204 11.3 24.1 0.00 0.48 0.48 90 1002.6
20260830123515 18 169 11.3 24.1 0.00 0.48 0.48 91 1002.6
20260830123028 18 181 12.9 24.1 0.00 0.48 0.48 90 1002.7
20260830122505 18 212 8.0 24.1 0.00 0.48 0.48 91 1002.6
20260830122005 18 211 12.9 29.0 0.00 0.48 0.48 90 1002.5
20260830121508 18 184 14.5 29.0 0.00 0.48 0.48 90 1002.6
20260830121008 18 192 9.7 27.4 0.03 0.48 0.48 91 1002.6
20260830120509 18 209 12.9 25.7 0.03 0.48 0.48 91 1002.6
20260830120035 18 164 12.9 19.3 0.03 0.48 0.48 92 1002.6
20260830115512 18 182 9.7 17.7 0.08 0.48 0.48 92 1002.6
20260830115011 18 163 8.0 19.3 0.13 0.48 0.48 92 1002.6
20260830114523 18 179 4.8 19.3 0.13 0.48 0.48 92 1002.5
20260830114015 18 190 6.4 16.1 0.13 0.48 0.48 92 1002.6
20260830113515 17 210 6.4 12.9 0.13 0.48 0.48 92 1002.6
20260830113029 17 183 6.4 14.5 0.13 0.48 0.48 92 1002.7
20260830112506 17 184 6.4 14.5 0.13 0.48 0.48 92 1002.8
20260830112008 17 106 6.4 17.7 0.10 0.46 0.46 92 1002.7
20260830111533 17 180 8.0 17.7 0.10 0.46 0.46 92 1002.8
20260830111009 17 168 8.0 16.1 0.08 0.46 0.46 92 1002.7
20260830110510 17 161 6.4 20.9 0.08 0.46 0.46 91 1002.8
20260830110020 17 156 11.3 20.9 0.08 0.46 0.46 91 1002.8
20260830105514 17 123 4.8 14.5 0.05 0.41 0.41 90 1002.8
20260830105015 17 180 8.0 16.1 0.00 0.36 0.36 89 1002.9
20260830104526 18 161 8.0 25.7 0.00 0.36 0.36 89 1002.9
20260830104015 18 154 14.5 25.7 0.00 0.36 0.36 88 1002.8
20260830103516 18 142 12.9 22.5 0.00 0.36 0.36 87 1003.0
20260830103027 18 184 9.7 20.9 0.00 0.36 0.36 87 1003.0
20260830102509 18 134 9.7 20.9 0.00 0.36 0.36 88 1003.1
20260830102008 18 186 9.7 17.7 0.00 0.36 0.36 88 1003.1
20260830101514 18 161 11.3 17.7 0.00 0.36 0.36 88 1003.0
20260830101012 18 177 9.7 17.7 0.00 0.36 0.36 88 1003.1
20260830100514 18 169 6.4 27.4 0.00 0.36 0.36 88 1003.1
20260830100020 18 148 12.9 27.4 0.00 0.36 0.36 87 1003.1
20260830095514 18 202 14.5 25.7 0.00 0.36 0.36 87 1003.1
20260830095016 18 189 9.7 22.5 0.00 0.36 0.36 88 1003.1
20260830094531 18 146 9.7 22.5 0.00 0.36 0.36 89 1003.2
20260830094015 17 204 9.7 17.7 0.00 0.36 0.36 89 1003.2
20260830093514 17 144 9.7 16.1 0.00 0.36 0.36 90 1003.2
20260830093010 17 126 4.8 16.1 0.00 0.36 0.36 90 1003.2
20260830092507 17 142 8.0 16.1 0.00 0.36 0.36 90 1003.3
20260830092013 17 174 8.0 22.5 0.00 0.36 0.36 90 1003.3
20260830091514 17 192 11.3 27.4 0.00 0.36 0.36 90 1003.3
20260830091012 17 147 12.9 22.5 0.00 0.36 0.36 90 1003.4
20260830090511 17 257 6.4 22.5 0.00 0.36 0.36 90 1003.3
20260830090024 17 153 14.5 25.7 0.00 0.36 0.36 90 1003.3
20260830085517 17 175 11.3 25.7 0.00 0.36 0.36 91 1003.4
20260830085016 17 159 9.7 17.7 0.00 0.36 0.36 91 1003.4
20260830084529 17 153 8.0 16.1 0.00 0.36 0.36 92 1003.4
20260830084019 17 149 4.8 20.9 0.00 0.36 0.36 92 1003.4
20260830083519 17 166 12.9 20.9 0.00 0.36 0.36 92 1003.5
20260830083011 17 201 8.0 17.7 0.00 0.36 0.36 92 1003.5
20260830082513 17 155 8.0 17.7 0.00 0.36 0.36 92 1003.5
20260830082009 17 180 8.0 14.5 0.00 0.36 0.36 92 1003.5
20260830081533 17 146 8.0 14.5 0.00 0.36 0.36 92 1003.5
20260830081014 16 167 9.7 16.1 0.00 0.36 0.36 92 1003.6
20260830080514 16 160 9.7 22.5 0.00 0.36 0.36 92 1003.6
20260830080027 16 161 9.7 22.5 0.00 0.36 0.36 92 1003.7
20260830075517 16 171 8.0 17.7 0.00 0.36 0.36 93 1003.7
20260830075016 16 163 12.9 17.7 0.00 0.36 0.36 93 1003.8
20260830074530 16 142 8.0 17.7 0.00 0.36 0.36 93 1003.8
20260830074018 16 156 6.4 17.7 0.00 0.36 0.36 93 1003.9
20260830073511 16 140 9.7 17.7 0.00 0.36 0.36 93 1003.8
20260830073013 16 160 9.7 17.7 0.00 0.36 0.36 93 1003.9
20260830072510 16 157 8.0 16.1 0.00 0.36 0.36 93 1003.8
20260830072012 16 154 6.4 14.5 0.00 0.36 0.36 93 1003.9
20260830071523 16 143 6.4 14.5 0.03 0.36 0.36 93 1003.9
20260830071012 16 164 8.0 14.5 0.08 0.36 0.36 93 1003.9
20260830070516 16 144 8.0 16.1 0.13 0.36 0.36 93 1004.0
20260830070035 16 151 11.3 14.5 0.18 0.33 0.33 93 1004.0
20260830065514 16 173 4.8 12.9 0.18 0.33 0.33 93 1003.9
20260830065019 16 144 6.4 12.9 0.23 0.33 0.33 93 1004.0
20260830064530 16 157 8.0 16.1 0.23 0.33 0.33 93 1004.0
20260830064023 16 132 9.7 16.1 0.23 0.33 0.33 93 1004.0
20260830063515 16 166 8.0 12.9 0.23 0.33 0.33 92 1004.1
20260830063029 16 150 3.2 12.9 0.23 0.33 0.33 92 1004.1
20260830062512 16 156 4.8 12.9 0.23 0.33 0.33 92 1004.1
20260830062015 16 146 4.8 12.9 0.25 0.33 0.33 92 1004.2
20260830061526 16 149 8.0 16.1 0.25 0.30 0.30 92 1004.2
20260830061013 16 165 9.7 17.7 0.20 0.28 0.28 92 1004.3
20260830060514 16 163 8.0 17.7 0.15 0.20 0.20 92 1004.3
20260830060028 16 141 8.0 14.5 0.08 0.15 0.15 92 1004.3
20260830055516 16 155 8.0 14.5 0.08 0.13 0.13 92 1004.3
20260830055020 16 145 6.4 14.5 0.03 0.08 0.08 92 1004.3
20260830054542 16 169 8.0 14.5 0.03 0.08 0.08 92 1004.3
20260830054020 16 155 6.4 14.5 0.03 0.08 0.08 92 1004.4
20260830053509 16 171 6.4 14.5 0.03 0.08 0.08 92 1004.3
20260830053021 16 138 8.0 19.3 0.03 0.08 0.08 92 1004.3
20260830052515 16 146 6.4 19.3 0.03 0.08 0.08 92 1004.4
20260830052014 16 136 9.7 16.1 0.00 0.08 0.08 92 1004.6
20260830051530 16 142 8.0 19.3 0.00 0.05 0.05 92 1004.6
20260830051017 16 132 9.7 19.3 0.00 0.05 0.05 92 1004.6
20260830050514 16 125 11.3 19.3 0.00 0.05 0.05 92 1004.6
20260830050032 16 132 4.8 16.1 0.00 0.05 0.05 92 1004.7
20260830045516 16 118 6.4 14.5 0.00 0.05 0.05 93 1004.7
20260830045015 16 117 9.7 12.9 0.00 0.05 0.05 93 1004.7
20260830044531 15 135 4.8 12.9 0.00 0.05 0.05 93 1004.8
20260830044010 15 111 6.4 11.3 0.00 0.05 0.05 93 1004.8
20260830043512 15 113 4.8 11.3 0.00 0.05 0.05 93 1004.8
20260830043026 15 129 4.8 12.9 0.00 0.05 0.05 93 1004.8
20260830042518 15 108 8.0 12.9 0.00 0.05 0.05 93 1005.0
20260830042019 15 133 6.4 11.3 0.00 0.05 0.05 93 1005.0